EW8775 Weather Reports


Display with metric or nautical units.
time (UTC)temp
F
wind
direction
speed
MPH
gust
MPH
rain 1hr
in
rain 24hr
in
rain mn
in
humidity
%
barometer
mb
20260905183016 80 180 4.0 12.0 0.00 0.00 0.00 23 1017.9
20260905180016 79 180 4.0 13.0 0.00 0.00 0.00 25 1018.1
20260905173056 78 180 3.0 15.0 0.00 0.00 0.00 24 1018.3
20260905170056 77 180 5.0 15.0 0.00 0.00 0.00 24 1018.0
20260905163015 76 180 3.0 13.0 0.00 0.00 0.00 25 1018.1
20260905160017 75 180 3.0 11.0 0.00 0.00 0.00 28 1017.9
20260905153017 74 135 2.0 11.0 0.00 0.00 0.00 30 1017.6
20260905150017 71 113 1.0 12.0 0.00 0.00 0.00 30 1017.4
20260905143057 68 113 2.0 10.0 0.00 0.00 0.00 33 1016.9
20260905140022 67 0.0 8.0 0.00 0.00 0.00 38 1016.7
20260905133057 70 113 1.0 11.0 0.00 0.00 0.00 32 1016.9
20260905130017 69 90 1.0 8.0 0.00 0.00 0.00 30 1016.4
20260905123057 70 90 1.0 10.0 0.00 0.00 0.00 28 1016.4
20260905120017 71 113 1.0 10.0 0.00 0.00 0.00 26 1016.8
20260905113017 71 113 2.0 11.0 0.00 0.00 0.00 26 1016.9
20260905110017 73 90 3.0 12.0 0.00 0.00 0.00 24 1017.1
20260905103037 72 113 2.0 11.0 0.00 0.00 0.00 27 1016.7
20260905100017 73 113 4.0 13.0 0.00 0.00 0.00 28 1016.7
20260905093057 73 113 4.0 15.0 0.00 0.00 0.00 29 1016.3
20260905090057 73 113 4.0 13.0 0.00 0.00 0.00 32 1016.0
20260905083016 73 113 3.0 12.0 0.00 0.00 0.00 33 1015.6
20260905080017 73 113 2.0 10.0 0.00 0.00 0.00 32 1015.3
20260905073017 74 180 1.0 8.0 0.00 0.00 0.00 31 1015.2
20260905070016 75 135 3.0 13.0 0.00 0.00 0.00 31 1015.1
20260905063016 76 158 3.0 11.0 0.00 0.00 0.00 31 1014.6
20260905060056 77 135 3.0 14.0 0.00 0.00 0.00 29 1014.1
20260905053017 78 135 4.0 12.0 0.00 0.00 0.00 28 1013.7
20260905050017 78 113 2.0 10.0 0.00 0.00 0.00 27 1013.3
20260905043017 78 113 3.0 12.0 0.00 0.00 0.00 27 1012.4
20260905040017 79 135 5.0 14.0 0.00 0.00 0.00 26 1012.1
20260905033017 79 135 5.0 16.0 0.00 0.00 0.00 26 1011.4
20260905030057 79 135 3.0 13.0 0.00 0.00 0.00 29 1011.0
20260905023022 80 135 3.0 12.0 0.00 0.00 0.00 28 1010.9
20260905020017 81 158 3.0 12.0 0.00 0.00 0.00 28 1011.3
20260905013017 82 158 4.0 12.0 0.00 0.00 0.00 28 1011.6
20260905010017 83 158 4.0 14.0 0.00 0.00 0.00 28 1011.6
20260905003016 84 180 3.0 10.0 0.00 0.00 0.00 25 1011.6
20260905000017 85 180 4.0 14.0 0.00 0.00 0.00 23 1011.9
20260904233016 86 180 3.0 12.0 0.00 0.00 0.00 19 1011.7
20260904230016 86 180 3.0 13.0 0.00 0.00 0.00 20 1012.1
20260904223017 86 180 5.0 13.0 0.00 0.00 0.00 19 1012.3
20260904220016 85 180 5.0 13.0 0.00 0.00 0.00 19 1012.6
20260904213016 85 180 3.0 12.0 0.00 0.00 0.00 21 1013.2
20260904210056 84 158 4.0 15.0 0.00 0.00 0.00 22 1013.3
20260904203016 83 180 6.0 17.0 0.00 0.00 0.00 23 1013.7
20260904200016 82 180 6.0 19.0 0.00 0.00 0.00 23 1013.8
20260904193016 81 180 6.0 19.0 0.00 0.00 0.00 27 1014.2
20260904190016 80 180 6.0 14.0 0.00 0.00 0.00 28 1014.7